| time (UTC) | temp F | wind direction | speed MPH | gust MPH | rain 1hr in | rain 24hr in | rain mn in | humidity % | barometer mb |
| 20260503032540 | 56 | 0 | 0.0 | 1.0 | 0.00 | 0.15 | 0.00 | 93 | 1011.8 |
| 20260503032041 | 56 | 0 | 0.0 | 2.0 | 0.00 | 0.15 | 0.00 | 93 | 1011.6 |
| 20260503031602 | 56 | 93 | 0.0 | 2.0 | 0.00 | 0.15 | 0.00 | 93 | 1011.6 |
| 20260503031041 | 56 | 0 | 0.0 | 2.0 | 0.00 | 0.15 | 0.00 | 93 | 1011.7 |
| 20260503030540 | 56 | 120 | 0.0 | 2.0 | 0.00 | 0.15 | 0.00 | 93 | 1011.7 |
| 20260503030052 | 56 | 76 | 0.0 | 1.0 | 0.00 | 0.15 | 0.00 | 93 | 1011.7 |
| 20260503025539 | 56 | 0 | 0.0 | 2.0 | 0.00 | 0.15 | 0.00 | 93 | 1011.9 |
| 20260503025042 | 57 | 0 | 0.0 | 2.0 | 0.00 | 0.15 | 0.00 | 93 | 1011.9 |
| 20260503024552 | 57 | 0 | 0.0 | 2.0 | 0.00 | 0.15 | 0.00 | 93 | 1012.1 |
| 20260503024041 | 57 | 0 | 0.0 | 1.0 | 0.00 | 0.15 | 0.00 | 93 | 1012.2 |
| 20260503023543 | 57 | 0 | 0.0 | 1.0 | 0.00 | 0.15 | 0.00 | 93 | 1012.1 |
| 20260503023100 | 57 | 0 | 0.0 | 1.0 | 0.00 | 0.15 | 0.00 | 93 | 1012.1 |
| 20260503022540 | 57 | 0 | 0.0 | 1.0 | 0.00 | 0.15 | 0.00 | 93 | 1012.1 |
| 20260503022043 | 57 | 0 | 0.0 | 2.0 | 0.00 | 0.15 | 0.00 | 93 | 1012.2 |
| 20260503021552 | 57 | 93 | 0.0 | 2.0 | 0.00 | 0.15 | 0.00 | 93 | 1012.3 |
| 20260503021041 | 57 | 93 | 0.0 | 1.0 | 0.00 | 0.15 | 0.00 | 93 | 1012.3 |
| 20260503020541 | 57 | 0 | 0.0 | 1.0 | 0.00 | 0.15 | 0.00 | 93 | 1012.3 |
| 20260503020053 | 57 | 111 | 0.0 | 2.0 | 0.00 | 0.15 | 0.00 | 93 | 1012.5 |
| 20260503015541 | 57 | 0 | 0.0 | 2.0 | 0.00 | 0.15 | 0.00 | 93 | 1012.6 |
| 20260503015040 | 57 | 149 | 0.0 | 2.0 | 0.00 | 0.15 | 0.00 | 93 | 1012.7 |
| 20260503014555 | 57 | 0 | 0.0 | 2.0 | 0.00 | 0.15 | 0.00 | 93 | 1012.6 |
| 20260503014039 | 57 | 0 | 0.0 | 2.0 | 0.00 | 0.15 | 0.00 | 93 | 1012.7 |
| 20260503013544 | 57 | 0 | 0.0 | 2.0 | 0.00 | 0.15 | 0.00 | 93 | 1012.7 |
| 20260503013050 | 57 | 126 | 0.0 | 1.0 | 0.00 | 0.15 | 0.00 | 93 | 1012.8 |
| 20260503012541 | 57 | 0 | 0.0 | 1.0 | 0.00 | 0.15 | 0.00 | 93 | 1012.7 |
| 20260503012044 | 57 | 0 | 0.0 | 2.0 | 0.00 | 0.15 | 0.00 | 93 | 1012.9 |
| 20260503011550 | 57 | 0 | 0.0 | 2.0 | 0.00 | 0.15 | 0.00 | 93 | 1012.9 |
| 20260503011040 | 58 | 0 | 0.0 | 2.0 | 0.00 | 0.15 | 0.00 | 93 | 1012.9 |
| 20260503010542 | 58 | 0 | 0.0 | 2.0 | 0.00 | 0.15 | 0.00 | 93 | 1012.8 |
| 20260503010047 | 58 | 0 | 0.0 | 3.0 | 0.00 | 0.15 | 0.00 | 93 | 1012.8 |
| 20260503005541 | 58 | 0 | 0.0 | 3.0 | 0.00 | 0.15 | 0.00 | 93 | 1012.8 |
| 20260503005044 | 58 | 120 | 1.0 | 3.0 | 0.00 | 0.15 | 0.00 | 93 | 1012.6 |
| 20260503004552 | 57 | 108 | 0.0 | 3.0 | 0.00 | 0.15 | 0.00 | 93 | 1012.8 |
| 20260503004040 | 58 | 282 | 0.0 | 3.0 | 0.00 | 0.15 | 0.00 | 93 | 1012.9 |
| 20260503003540 | 57 | 51 | 1.0 | 3.0 | 0.00 | 0.15 | 0.00 | 93 | 1012.8 |
| 20260503003053 | 57 | 76 | 0.0 | 2.0 | 0.00 | 0.15 | 0.00 | 93 | 1012.9 |
| 20260503002541 | 57 | 0 | 0.0 | 2.0 | 0.00 | 0.15 | 0.00 | 92 | 1013.0 |
| 20260503002040 | 57 | 279 | 0.0 | 2.0 | 0.00 | 0.15 | 0.00 | 93 | 1013.2 |
| 20260503001608 | 57 | 0 | 0.0 | 1.0 | 0.00 | 0.15 | 0.00 | 93 | 1013.2 |
| 20260503001040 | 57 | 265 | 0.0 | 1.0 | 0.00 | 0.15 | 0.00 | 92 | 1013.3 |
| 20260503000545 | 57 | 0 | 0.0 | 3.0 | 0.00 | 0.15 | 0.00 | 92 | 1013.4 |
| 20260503000109 | 57 | 0 | 0.0 | 3.0 | 0.00 | 0.15 | 0.00 | 93 | 1013.4 |
| 20260502235540 | 57 | 325 | 0.0 | 3.0 | 0.00 | 0.15 | 0.00 | 93 | 1013.4 |
| 20260502235040 | 57 | 334 | 0.0 | 3.0 | 0.00 | 0.15 | 0.00 | 92 | 1013.4 |
| 20260502234600 | 57 | 0 | 1.0 | 3.0 | 0.00 | 0.15 | 0.00 | 92 | 1013.4 |
| 20260502234042 | 57 | 0 | 1.0 | 3.0 | 0.00 | 0.15 | 0.00 | 92 | 1013.4 |
| 20260502233541 | 58 | 178 | 0.0 | 3.0 | 0.00 | 0.15 | 0.00 | 92 | 1013.5 |
| 20260502233048 | 58 | 0 | 0.0 | 5.0 | 0.00 | 0.15 | 0.00 | 92 | 1013.6 |
| 20260502232543 | 57 | 93 | 0.0 | 5.0 | 0.00 | 0.15 | 0.00 | 92 | 1013.6 |
| 20260502232039 | 57 | 80 | 0.0 | 3.0 | 0.00 | 0.15 | 0.00 | 92 | 1013.6 |
| 20260502231600 | 57 | 0 | 0.0 | 3.0 | 0.00 | 0.15 | 0.00 | 92 | 1013.7 |
| 20260502231043 | 57 | 76 | 0.0 | 3.0 | 0.00 | 0.15 | 0.00 | 92 | 1013.7 |
| 20260502230539 | 58 | 120 | 0.0 | 3.0 | 0.00 | 0.15 | 0.00 | 92 | 1013.8 |
| 20260502230046 | 58 | 0 | 0.0 | 3.0 | 0.00 | 0.15 | 0.00 | 92 | 1013.8 |
| 20260502225541 | 58 | 0 | 0.0 | 3.0 | 0.00 | 0.15 | 0.00 | 92 | 1013.7 |
| 20260502225041 | 58 | 120 | 0.0 | 2.0 | 0.00 | 0.15 | 0.00 | 92 | 1013.8 |
| 20260502224549 | 58 | 105 | 0.0 | 2.0 | 0.00 | 0.15 | 0.00 | 92 | 1013.8 |
| 20260502224042 | 58 | 0 | 0.0 | 2.0 | 0.00 | 0.15 | 0.00 | 92 | 1013.8 |
| 20260502223540 | 58 | 334 | 0.0 | 2.0 | 0.00 | 0.15 | 0.00 | 92 | 1013.8 |
| 20260502223048 | 58 | 108 | 0.0 | 2.0 | 0.00 | 0.15 | 0.00 | 92 | 1013.8 |
| 20260502222541 | 58 | 120 | 0.0 | 2.0 | 0.00 | 0.15 | 0.00 | 92 | 1013.7 |
| 20260502222043 | 58 | 68 | 0.0 | 2.0 | 0.00 | 0.15 | 0.00 | 92 | 1013.9 |
| 20260502221547 | 58 | 298 | 0.0 | 2.0 | 0.00 | 0.15 | 0.00 | 92 | 1013.9 |
| 20260502221045 | 58 | 0 | 0.0 | 4.0 | 0.00 | 0.15 | 0.00 | 92 | 1013.9 |
| 20260502220542 | 58 | 0 | 1.0 | 4.0 | 0.00 | 0.15 | 0.00 | 91 | 1013.9 |
| 20260502220050 | 58 | 282 | 1.0 | 3.0 | 0.00 | 0.15 | 0.00 | 91 | 1013.9 |
| 20260502215541 | 58 | 301 | 0.0 | 2.0 | 0.00 | 0.15 | 0.15 | 91 | 1013.7 |
| 20260502215042 | 58 | 0 | 0.0 | 2.0 | 0.00 | 0.15 | 0.15 | 91 | 1013.7 |
| 20260502214547 | 58 | 0 | 0.0 | 3.0 | 0.00 | 0.15 | 0.15 | 91 | 1013.7 |
| 20260502214041 | 58 | 0 | 0.0 | 3.0 | 0.00 | 0.15 | 0.15 | 91 | 1013.6 |
| 20260502213541 | 58 | 0 | 0.0 | 3.0 | 0.00 | 0.15 | 0.15 | 91 | 1013.6 |
| 20260502213045 | 58 | 61 | 0.0 | 3.0 | 0.00 | 0.15 | 0.15 | 91 | 1013.6 |
| 20260502212542 | 58 | 9 | 0.0 | 3.0 | 0.00 | 0.15 | 0.15 | 91 | 1013.6 |
| 20260502212041 | 58 | 9 | 0.0 | 3.0 | 0.01 | 0.15 | 0.15 | 90 | 1013.6 |
| 20260502211542 | 58 | 0 | 1.0 | 4.0 | 0.02 | 0.15 | 0.15 | 90 | 1013.7 |
| 20260502211042 | 58 | 41 | 0.0 | 6.0 | 0.03 | 0.15 | 0.15 | 90 | 1013.7 |
| 20260502210542 | 58 | 298 | 2.0 | 6.0 | 0.04 | 0.15 | 0.15 | 90 | 1013.6 |
| 20260502210049 | 58 | 30 | 1.0 | 5.0 | 0.09 | 0.15 | 0.15 | 90 | 1013.6 |
| 20260502205542 | 58 | 0 | 1.0 | 6.0 | 0.14 | 0.15 | 0.15 | 90 | 1013.7 |
| 20260502205043 | 58 | 0 | 1.0 | 6.0 | 0.14 | 0.15 | 0.15 | 89 | 1013.9 |
| 20260502204551 | 59 | 59 | 2.0 | 6.0 | 0.14 | 0.15 | 0.15 | 89 | 1013.8 |
| 20260502204042 | 59 | 11 | 1.0 | 6.0 | 0.15 | 0.15 | 0.15 | 89 | 1014.0 |
| 20260502203543 | 59 | 93 | 2.0 | 6.0 | 0.15 | 0.15 | 0.15 | 89 | 1014.2 |
| 20260502203052 | 60 | 34 | 0.0 | 4.0 | 0.14 | 0.14 | 0.14 | 88 | 1014.3 |
| 20260502202544 | 60 | 59 | 0.0 | 4.0 | 0.14 | 0.14 | 0.14 | 88 | 1014.4 |
| 20260502202044 | 60 | 34 | 2.0 | 4.0 | 0.14 | 0.14 | 0.14 | 87 | 1014.5 |
| 20260502201552 | 61 | 303 | 0.0 | 7.0 | 0.13 | 0.13 | 0.13 | 86 | 1014.7 |
| 20260502201043 | 61 | 0 | 2.0 | 7.0 | 0.11 | 0.11 | 0.11 | 85 | 1014.7 |
| 20260502200542 | 61 | 99 | 2.0 | 10.0 | 0.11 | 0.11 | 0.11 | 83 | 1014.6 |
| 20260502200050 | 62 | 85 | 2.0 | 12.0 | 0.06 | 0.06 | 0.06 | 81 | 1014.2 |
| 20260502195542 | 63 | 298 | 2.0 | 12.0 | 0.01 | 0.01 | 0.01 | 79 | 1014.9 |
| 20260502195042 | 64 | 265 | 3.0 | 17.0 | 0.01 | 0.01 | 0.01 | 76 | 1015.1 |
| 20260502194553 | 65 | 288 | 5.0 | 17.0 | 0.00 | 0.00 | 0.00 | 72 | 1014.5 |
| 20260502194045 | 67 | 250 | 7.0 | 19.0 | 0.00 | 0.00 | 0.00 | 68 | 1014.5 |
| 20260502193542 | 68 | 290 | 10.0 | 19.0 | 0.00 | 0.00 | 0.00 | 68 | 1014.4 |
| 20260502193051 | 69 | 249 | 4.0 | 10.0 | 0.00 | 0.00 | 0.00 | 67 | 1014.3 |
| 20260502192543 | 69 | 0 | 0.0 | 1.0 | 0.00 | 0.00 | 0.00 | 67 | 1013.6 |
| 20260502192040 | 69 | 0 | 0.0 | 2.0 | 0.00 | 0.00 | 0.00 | 67 | 1013.7 |
| 20260502191552 | 70 | 0 | 0.0 | 2.0 | 0.00 | 0.00 | 0.00 | 67 | 1013.7 |
| 20260502191043 | 70 | 0 | 0.0 | 3.0 | 0.00 | 0.00 | 0.00 | 67 | 1013.6 |
| 20260502190544 | 70 | 0 | 0.0 | 3.0 | 0.00 | 0.00 | 0.00 | 67 | 1013.6 |
| 20260502190047 | 70 | 0 | 1.0 | 3.0 | 0.00 | 0.00 | 0.00 | 67 | 1013.6 |
| 20260502185543 | 70 | 334 | 0.0 | 3.0 | 0.00 | 0.00 | 0.00 | 67 | 1013.6 |
| 20260502185042 | 70 | 0 | 0.0 | 3.0 | 0.00 | 0.00 | 0.00 | 66 | 1013.8 |
| 20260502184554 | 70 | 31 | 0.0 | 3.0 | 0.00 | 0.00 | 0.00 | 66 | 1013.8 |
| 20260502184046 | 70 | 0 | 0.0 | 2.0 | 0.00 | 0.00 | 0.00 | 66 | 1013.7 |
| 20260502183542 | 70 | 0 | 0.0 | 2.0 | 0.00 | 0.00 | 0.00 | 65 | 1013.8 |
| 20260502183049 | 71 | 51 | 0.0 | 2.0 | 0.00 | 0.00 | 0.00 | 65 | 1013.8 |
| 20260502182541 | 71 | 0 | 0.0 | 2.0 | 0.00 | 0.00 | 0.00 | 64 | 1013.8 |
| 20260502182045 | 71 | 0 | 0.0 | 2.0 | 0.00 | 0.00 | 0.00 | 63 | 1013.8 |
| 20260502181553 | 71 | 0 | 0.0 | 2.0 | 0.00 | 0.00 | 0.00 | 63 | 1013.8 |
| 20260502181041 | 71 | 0 | 0.0 | 2.0 | 0.00 | 0.00 | 0.00 | 62 | 1013.8 |
| 20260502180544 | 72 | 0 | 0.0 | 2.0 | 0.00 | 0.00 | 0.00 | 61 | 1013.8 |
| 20260502180105 | 72 | 0 | 0.0 | 3.0 | 0.00 | 0.00 | 0.00 | 61 | 1013.7 |
| 20260502164039 | 75 | 17 | 2.0 | 4.0 | 0.00 | 0.00 | 0.00 | 56 | 1014.3 |
| 20260502163541 | 75 | 334 | 1.0 | 6.0 | 0.00 | 0.00 | 0.00 | 56 | 1014.4 |
| 20260502163053 | 75 | 0 | 1.0 | 6.0 | 0.00 | 0.00 | 0.00 | 58 | 1014.5 |
| 20260502162543 | 75 | 325 | 1.0 | 5.0 | 0.00 | 0.00 | 0.00 | 58 | 1014.5 |
| 20260502162040 | 74 | 19 | 0.0 | 3.0 | 0.00 | 0.00 | 0.00 | 60 | 1014.6 |
| 20260502161549 | 73 | 68 | 1.0 | 4.0 | 0.00 | 0.00 | 0.00 | 61 | 1014.7 |
| 20260502161040 | 73 | 239 | 1.0 | 4.0 | 0.00 | 0.00 | 0.00 | 61 | 1014.7 |
| 20260502160542 | 73 | 19 | 1.0 | 4.0 | 0.00 | 0.00 | 0.00 | 61 | 1014.8 |
| 20260502152041 | 74 | 247 | 2.0 | 4.0 | 0.00 | 0.00 | 0.00 | 55 | 1015.1 |
| 20260502151552 | 74 | 212 | 1.0 | 4.0 | 0.00 | 0.00 | 0.00 | 54 | 1015.1 |
| 20260502151041 | 74 | 250 | 1.0 | 4.0 | 0.00 | 0.00 | 0.00 | 54 | 1015.3 |
| 20260502150542 | 75 | 225 | 1.0 | 4.0 | 0.00 | 0.00 | 0.00 | 54 | 1015.4 |
| 20260502130545 | 75 | 128 | 3.0 | 9.0 | 0.00 | 0.00 | 0.00 | 54 | 1017.2 |
| 20260502123542 | 75 | 265 | 3.0 | 11.0 | 0.00 | 0.00 | 0.00 | 54 | 1017.6 |
| 20260502123055 | 76 | 232 | 4.0 | 11.0 | 0.00 | 0.00 | 0.00 | 56 | 1017.7 |
| 20260502122545 | 75 | 0 | 1.0 | 10.0 | 0.00 | 0.00 | 0.00 | 55 | 1017.8 |
| 20260502122044 | 75 | 257 | 3.0 | 10.0 | 0.00 | 0.00 | 0.00 | 57 | 1018.0 |
| 20260502121553 | 74 | 319 | 3.0 | 9.0 | 0.00 | 0.00 | 0.00 | 59 | 1018.0 |
| 20260502121042 | 74 | 171 | 4.0 | 9.0 | 0.00 | 0.00 | 0.00 | 58 | 1018.1 |
| 20260502120542 | 73 | 247 | 2.0 | 7.0 | 0.00 | 0.00 | 0.00 | 59 | 1018.1 |
| 20260502115544 | 73 | 239 | 3.0 | 10.0 | 0.00 | 0.00 | 0.00 | 60 | 1018.1 |
| 20260502115043 | 73 | 208 | 2.0 | 10.0 | 0.00 | 0.00 | 0.00 | 60 | 1018.2 |
| 20260502114547 | 74 | 232 | 2.0 | 10.0 | 0.00 | 0.00 | 0.00 | 60 | 1018.3 |
| 20260502114042 | 73 | 291 | 3.0 | 11.0 | 0.00 | 0.00 | 0.00 | 60 | 1018.4 |
| 20260502113542 | 73 | 26 | 3.0 | 11.0 | 0.00 | 0.00 | 0.00 | 60 | 1018.4 |
| 20260502113051 | 73 | 137 | 1.0 | 10.0 | 0.00 | 0.00 | 0.00 | 61 | 1018.6 |
| 20260502112544 | 72 | 201 | 3.0 | 10.0 | 0.00 | 0.00 | 0.00 | 61 | 1018.7 |
| 20260502112041 | 73 | 219 | 3.0 | 9.0 | 0.00 | 0.00 | 0.00 | 60 | 1018.8 |
| 20260502111559 | 73 | 221 | 3.0 | 9.0 | 0.00 | 0.00 | 0.00 | 60 | 1018.8 |
| 20260502111041 | 73 | 218 | 3.0 | 9.0 | 0.00 | 0.00 | 0.00 | 60 | 1018.8 |
| 20260502110541 | 72 | 233 | 2.0 | 9.0 | 0.00 | 0.00 | 0.00 | 61 | 1018.8 |
| 20260502110047 | 73 | 242 | 3.0 | 9.0 | 0.00 | 0.00 | 0.00 | 60 | 1018.9 |
| 20260502105542 | 73 | 212 | 3.0 | 9.0 | 0.00 | 0.00 | 0.00 | 60 | 1018.8 |
| 20260502105041 | 72 | 51 | 4.0 | 9.0 | 0.00 | 0.00 | 0.00 | 60 | 1018.8 |
| 20260502104549 | 73 | 144 | 2.0 | 8.0 | 0.00 | 0.00 | 0.00 | 61 | 1018.8 |
| 20260502104041 | 72 | 250 | 3.0 | 8.0 | 0.00 | 0.00 | 0.00 | 61 | 1018.9 |
| 20260502103542 | 71 | 233 | 3.0 | 8.0 | 0.00 | 0.00 | 0.00 | 63 | 1018.9 |
| 20260502103101 | 71 | 93 | 3.0 | 10.0 | 0.00 | 0.00 | 0.00 | 63 | 1019.0 |
| 20260502102543 | 71 | 265 | 3.0 | 10.0 | 0.00 | 0.00 | 0.00 | 61 | 1019.1 |
| 20260502102042 | 72 | 185 | 4.0 | 8.0 | 0.00 | 0.00 | 0.00 | 60 | 1019.0 |
| 20260502101601 | 72 | 229 | 2.0 | 8.0 | 0.00 | 0.00 | 0.00 | 62 | 1019.1 |
| 20260502101043 | 71 | 265 | 2.0 | 9.0 | 0.00 | 0.00 | 0.00 | 62 | 1019.1 |
| 20260502100541 | 71 | 280 | 2.0 | 9.0 | 0.00 | 0.00 | 0.00 | 63 | 1019.2 |
| 20260502091041 | 69 | 192 | 2.0 | 9.0 | 0.00 | 0.00 | 0.00 | 65 | 1019.4 |
| 20260502090545 | 68 | 301 | 3.0 | 8.0 | 0.00 | 0.00 | 0.00 | 65 | 1019.3 |
| 20260502071042 | 62 | 129 | 1.0 | 5.0 | 0.00 | 0.00 | 0.00 | 71 | 1019.8 |
| 20260502070542 | 62 | 178 | 1.0 | 5.0 | 0.00 | 0.00 | 0.00 | 71 | 1019.8 |
| 20260502070051 | 62 | 169 | 2.0 | 5.0 | 0.00 | 0.00 | 0.00 | 69 | 1019.9 |
| 20260502065542 | 62 | 124 | 1.0 | 4.0 | 0.00 | 0.00 | 0.00 | 70 | 1019.7 |
| 20260502065041 | 62 | 137 | 1.0 | 6.0 | 0.00 | 0.00 | 0.00 | 70 | 1019.7 |
| 20260502064545 | 61 | 193 | 2.0 | 6.0 | 0.00 | 0.00 | 0.00 | 70 | 1019.8 |
| 20260502064039 | 61 | 137 | 1.0 | 5.0 | 0.00 | 0.00 | 0.00 | 70 | 1019.9 |
| 20260502063542 | 61 | 137 | 1.0 | 5.0 | 0.00 | 0.00 | 0.00 | 70 | 1019.7 |
| 20260502063050 | 61 | 162 | 1.0 | 5.0 | 0.00 | 0.00 | 0.00 | 70 | 1019.7 |
| 20260502062543 | 60 | 9 | 1.0 | 4.0 | 0.00 | 0.00 | 0.00 | 70 | 1019.6 |
| 20260502062041 | 60 | 0 | 1.0 | 3.0 | 0.00 | 0.00 | 0.00 | 71 | 1019.7 |
| 20260502061555 | 59 | 146 | 1.0 | 4.0 | 0.00 | 0.00 | 0.00 | 72 | 1019.6 |
| 20260502061041 | 59 | 0 | 0.0 | 4.0 | 0.00 | 0.00 | 0.00 | 72 | 1019.7 |
| 20260502060541 | 58 | 254 | 1.0 | 4.0 | 0.00 | 0.00 | 0.00 | 72 | 1019.6 |
| 20260502060048 | 58 | 265 | 0.0 | 3.0 | 0.00 | 0.00 | 0.00 | 72 | 1019.5 |
| 20260502055541 | 57 | 205 | 0.0 | 2.0 | 0.00 | 0.00 | 0.00 | 72 | 1019.5 |
| 20260502055042 | 57 | 93 | 0.0 | 2.0 | 0.00 | 0.00 | 0.00 | 72 | 1019.6 |
| 20260502054600 | 57 | 93 | 0.0 | 2.0 | 0.00 | 0.00 | 0.00 | 71 | 1019.5 |
| 20260502054039 | 57 | 0 | 0.0 | 2.0 | 0.00 | 0.00 | 0.00 | 71 | 1019.6 |
| 20260502053539 | 57 | 239 | 0.0 | 2.0 | 0.00 | 0.00 | 0.00 | 71 | 1019.6 |
| 20260502053047 | 57 | 51 | 0.0 | 2.0 | 0.00 | 0.00 | 0.00 | 71 | 1019.5 |
| 20260502052541 | 57 | 254 | 0.0 | 2.0 | 0.00 | 0.00 | 0.00 | 71 | 1019.6 |
| 20260502052045 | 57 | 212 | 0.0 | 2.0 | 0.00 | 0.00 | 0.00 | 70 | 1019.5 |
| 20260502051549 | 57 | 0 | 0.0 | 2.0 | 0.00 | 0.00 | 0.00 | 70 | 1019.6 |
| 20260502051042 | 56 | 0 | 0.0 | 2.0 | 0.00 | 0.00 | 0.00 | 71 | 1019.5 |
| 20260502050541 | 56 | 0 | 0.0 | 2.0 | 0.00 | 0.00 | 0.00 | 71 | 1019.5 |
| 20260502050052 | 56 | 0 | 0.0 | 2.0 | 0.00 | 0.00 | 0.00 | 70 | 1019.6 |
| 20260502045544 | 56 | 124 | 0.0 | 2.0 | 0.00 | 0.00 | 0.00 | 71 | 1019.5 |
| 20260502045042 | 56 | 178 | 0.0 | 1.0 | 0.00 | 0.00 | 0.00 | 69 | 1019.4 |
| 20260502044551 | 56 | 0 | 0.0 | 1.0 | 0.00 | 0.00 | 0.00 | 69 | 1019.4 |
| 20260502044040 | 56 | 0 | 0.0 | 2.0 | 0.00 | 0.00 | 0.00 | 69 | 1019.2 |
| 20260502043541 | 56 | 0 | 0.0 | 2.0 | 0.00 | 0.00 | 0.00 | 68 | 1019.3 |
| 20260502043056 | 56 | 0 | 0.0 | 2.0 | 0.00 | 0.00 | 0.00 | 67 | 1019.4 |
| 20260502042544 | 57 | 93 | 0.0 | 1.0 | 0.00 | 0.00 | 0.00 | 66 | 1019.3 |
| 20260502042042 | 57 | 0 | 0.0 | 1.0 | 0.00 | 0.00 | 0.00 | 65 | 1019.4 |
| 20260502041543 | 57 | 0 | 0.0 | 2.0 | 0.00 | 0.00 | 0.00 | 64 | 1019.4 |
| 20260502041041 | 57 | 0 | 0.0 | 2.0 | 0.00 | 0.00 | 0.00 | 63 | 1019.4 |
| 20260502040540 | 57 | 137 | 0.0 | 3.0 | 0.00 | 0.00 | 0.00 | 62 | 1019.5 |
| 20260502040053 | 57 | 0 | 0.0 | 3.0 | 0.00 | 0.00 | 0.00 | 62 | 1019.4 |
| 20260502035541 | 56 | 0 | 0.0 | 2.0 | 0.00 | 0.00 | 0.00 | 63 | 1019.5 |
| 20260502035042 | 55 | 108 | 0.0 | 1.0 | 0.00 | 0.00 | 0.00 | 65 | 1019.6 |
| 20260502034549 | 55 | 0 | 0.0 | 1.0 | 0.00 | 0.00 | 0.00 | 65 | 1019.6 |
| 20260502034040 | 55 | 0 | 0.0 | 2.0 | 0.00 | 0.00 | 0.00 | 64 | 1019.5 |
| 20260502033541 | 54 | 221 | 0.0 | 2.0 | 0.00 | 0.00 | 0.00 | 64 | 1019.5 |
| 20260502033050 | 55 | 0 | 1.0 | 2.0 | 0.00 | 0.00 | 0.00 | 63 | 1019.5 |